< < Back
Terminal Aerodrome Forecast


Current Version              Previous Versions:   1  2  3  4  5  6  7  8  9  

Terminal Aerodrome Forecast

458
FTUS44 KMOB 290500
TAFPNS
TAF
KPNS 290528Z 2906/3006 32003KT P6SM SKC
     FM290900 36006KT P6SM SKC
     FM300300 32005KT P6SM SKC=

Latest METAR

978
SAUS70 KWBC 301100 RRF
MTRPNS
METAR KPNS 301053Z 01005KT 10SM BKN070 20/14 A3002 RMK AO2 SLP167
T02000144


USA.gov is the U.S. government's official web portal to all federal, state and local government web resources and services.